Location: Duatown
(6.3069°N, 10.6426°W)
Time: 14:40:48
(UTC+00:00)

Daily predictions for brighter satellites

Satellite Brightness Start Highest point End
(mag) Time Altitude Azimuth Time Altitude Azimuth Time Altitude Azimuth
ARIANE 5 R/B 3.7 19:05:08 10° SW 19:07:58 29° SSE 19:17:21 10° ESE
ATLAS 5 CENTAUR R/B 3.0 19:05:51 10° NW 19:08:06 18° N 19:12:18 10° NE
STARLINK-1109 3.6 19:07:48 10° NNW 19:11:53 68° NE 19:16:00 10° SE
Okean-O 2.6 19:11:09 10° SSE 19:15:35 80° ENE 19:19:59 10° N
STARLINK-1091 3.6 19:12:45 10° NNW 19:16:52 79° ENE 19:21:00 10° SE
H-2A R/B 4.5 19:10:24 10° NW 19:19:13 16° NNW 19:22:58 10° NNE
TSX-5 4.3 19:16:33 10° N 19:19:25 26° ENE 19:22:07 10° SE
ADEOS Rocket 3.9 19:15:40 10° N 19:21:05 49° WNW 19:26:20 10° SSW
Cosmos 1606 Rocket 4.1 19:17:10 10° SSE 19:21:10 35° E 19:25:12 10° NNE
ARIANE 5 DEB (SYLDA) 4.5 19:21:00 10° SSW 19:21:47 11° S 19:22:41 10° SSE
STARLINK-1072 3.6 19:17:45 10° NW 19:21:53 86° SW 19:26:01 10° SSE
Aureole 3 3.9 19:20:41 10° SSW 19:24:21 65° W 19:28:58 10° N
USA 215 3.3 19:18:14 10° SE 19:24:47 82° NE 19:31:19 10° NW
Cosmos 1939 Rocket 3.1 19:22:24 10° SSE 19:26:12 44° ENE 19:29:55 10° N
STARLINK-1096 3.8 19:22:44 10° NW 19:26:51 74° SW 19:30:58 10° SSE
Cosmos 1953 2.9 19:23:43 10° SSW 19:27:37 61° W 19:31:31 10° N
CZ-4 R/B 1.2 19:24:24 10° SSE 19:28:14 65° E 19:32:02 10° N
Cosmos 1302 Rocket 4.0 19:24:45 10° N 19:30:02 78° ENE 19:35:18 10° SSE
Ariane H10+ 4.1 19:13:15 10° W 19:30:19 39° SSW 19:35:55 10° SE
STARLINK-1079 4.0 19:27:42 10° NW 19:31:47 63° SW 19:35:53 10° SSE
NOAA 11 4.1 19:26:27 10° SSE 19:31:50 71° ENE 19:37:14 10° N
STARLINK-43 3.2 19:28:47 10° SSW 19:32:25 70° SE 19:36:05 10° NE
Aureole 2 Rocket 3.5 19:30:57 10° NNE 19:33:28 21° ENE 19:34:20 19° E
BLOCK DM-SL R/B 2.0 19:32:36 10° WSW 19:34:46 19° S 19:35:43 14° SSE
ASTRO E2 3.7 19:31:36 10° WSW 19:35:25 44° NNW 19:39:15 10° NE
STARLINK-1116 4.3 19:32:46 10° NW 19:36:47 53° SW 19:40:49 10° SSE
CZ-2D R/B 3.1 19:38:33 10° SSE 19:42:22 73° ENE 19:46:08 10° N
Cosmos 1709 Rocket 4.0 19:37:40 10° N 19:43:46 85° W 19:49:54 10° S
GPS 2-12 Rocket1 3.1 19:39:42 10° WSW 19:44:32 85° NNW 19:47:55 19° ENE
SOZ 4.1 19:43:30 10° NNW 19:47:26 58° NE 19:48:08 38° ESE
HJ-1C 4.2 19:49:57 29° ENE 19:49:57 29° ENE 19:52:48 10° NNE
Cosmos 1626 4.0 19:47:03 10° NNW 19:50:23 32° W 19:53:43 10° SSW
Skynet4D Del rocket 3.5 19:45:32 10° WSW 19:51:26 88° SSE 19:55:16 20° ENE
H-2A R/B 3.3 19:53:50 22° ENE 19:53:50 22° ENE 19:57:28 10° NNE
Milstar 3 Cent rocket 4.1 19:49:18 10° WNW 19:56:45 59° SSW 20:10:03 15° SE
Cosmos 1140 Rocket 4.1 19:54:47 10° SSW 19:59:54 57° WNW 20:04:59 10° N
Cosmos 2074 Rocket 4.3 19:56:08 10° NNE 20:02:02 43° E 20:06:46 16° SSE
Ariane Rocket 3.7 20:02:30 30° ENE 20:02:30 30° ENE 20:06:51 10° NNE
GOES 2 Rocket 2.8 20:00:21 10° WNW 20:04:32 75° NNE 20:05:39 47° ESE
YAOGAN 1 3.5 20:00:35 10° S 20:04:45 49° WSW 20:08:55 10° NNW
CZ-2C R/B 4.3 20:10:44 22° NE 20:10:44 22° NE 20:13:07 10° NNE
Ariane H10-3 4.3 19:41:40 10° W 20:09:01 38° SSW 20:12:27 22° SSE
STARLINK-1106 4.4 20:05:15 10° NNW 20:08:38 34° NE 20:08:38 34° NE
USA 234 3.4 20:05:31 10° NNE 20:12:02 77° NW 20:18:33 10° SW
STARLINK-1112 4.3 20:10:06 10° NNW 20:13:25 38° NNE 20:13:25 38° NNE
STARLINK-1128 4.2 20:14:58 10° NNW 20:18:13 42° NNE 20:18:13 42° NNE
ARGOS Delta rocket 3.9 20:16:21 19° SSE 20:20:05 85° E 20:25:23 10° N
STARLINK-1113 4.3 20:19:55 10° NNW 20:23:00 43° N 20:23:00 43° N
Cosmos 2058 Rocket 3.4 20:21:11 10° SSW 20:25:38 65° W 20:30:06 10° N
Cosmos 1943 Rocket 2.5 20:20:59 10° NNW 20:26:30 65° WSW 20:30:28 20° S
STARLINK-1119 4.4 20:24:49 10° NNW 20:27:46 44° N 20:27:46 44° N
Cosmos 2084 Rocket 4.5 20:28:35 10° NW 20:32:50 44° WSW 20:33:55 37° SSW
Meteor 2-6 4.5 20:27:22 10° S 20:32:57 74° E 20:38:28 10° N
Cosmos 2327 Rocket 4.5 20:32:14 10° N 20:38:12 63° ENE 20:38:12 63° ENE
Cosmos 2369 Rocket 2.5 20:38:33 10° NNW 20:44:05 62° WSW 20:45:29 47° SSW
GPS 2-15 Rocket1 3.8 20:40:38 10° WNW 20:44:30 53° NW 20:44:30 53° NW
Spelda 4.3 20:45:09 10° W 20:48:11 68° SW 20:48:11 68° SW
ARGOS 4.4 21:02:34 34° NNW 21:02:34 34° NNW 21:05:29 10° NNW
ATLAS 3B CENTAUR R/B 3.9 20:57:06 10° W 21:00:58 18° SW 21:00:58 18° SW
CZ-2C R/B 4.5 21:11:30 10° N 21:23:39 - SSW 21:13:37 23° NNW
H-2A R/B 4.3 21:34:27 20° WNW 21:34:27 20° WNW 21:36:52 10° NW
